Clermont County, Batavia, OH

10:15 AM EST on December 15, 2019 (GMT -0500)
Clermont County, Batavia

Weather History for KI69 - May, 2019

Change the Weather History Date:

Saturday, May 18, 2019

  Actual Average (WUND) Record (WUND)
Temperature  
Mean Temperature 73 °F -  
Max Temperature 86 °F - - (-1)
Min Temperature 60 °F - - (-1)
Cooling Degree Days 8    
Growing Degree Days 23 (Base 50)    
Moisture  
Dew Point 64 °F    
Average Humidity 69    
Maximum Humidity 99    
Minimum Humidity 45    
Precipitation  
Precipitation 0.00 in - - ()
Sea Level Pressure  
Sea Level Pressure 29.94 in    
Wind  
Wind Speed 3 mph (SSW)    
Max Wind Speed 13 mph    
Max Gust Speed 21 mph    
Visibility 10 miles    
Events      
Averages and records for this station are not official NWS values.
T = Trace of Precipitation, MM = Missing Value Source: NWS Daily Summary

Daily Weather History Graph

Daily Weather History Graph

Search for Another Location

Airport or City:

Astronomy

May. 18, 2019 Rise Set
Actual Time 6:21 AM EDT 8:45 PM EDT
Civil Twilight 5:51 AM EDT 9:15 PM EDT
Nautical Twilight 5:13 AM EDT 9:53 PM EDT
Astronomical Twilight 4:32 AM EDT 10:35 PM EDT
Moon 8:40 PM EDT (5/18) 6:26 AM EDT (5/18)
Length of Visible Light 15h 24m
Length of Day
14h 24m
Full, 100% of the Moon is Illuminated
May 18
Full
May 18
Full
May 26
Last Quarter
Jun 3
New
Jun 10
First Quarter

Hourly Weather History & Observations

Time (EDT) Temp. Heat Index Dew Point Humidity Pressure Visibility Wind Dir Wind Speed Gust Speed Precip Events Conditions
12:15 AM 66.2 °F - 64.8 °F 95% 29.94 in 10.0 mi Calm Calm - N/A   Clear
12:35 AM 66.4 °F - 64.4 °F 93% 29.94 in 10.0 mi Calm Calm - N/A   Clear
12:55 AM 65.8 °F - 64.0 °F 94% 29.94 in 10.0 mi Calm Calm - N/A   Clear
1:15 AM 65.5 °F - 63.5 °F 93% 29.94 in 10.0 mi Calm Calm - N/A   Clear
1:35 AM 66.0 °F - 62.8 °F 89% 29.95 in 10.0 mi Calm Calm - N/A   Clear
1:55 AM 66.0 °F - 61.9 °F 86% 29.94 in 10.0 mi Calm Calm - N/A   Clear
2:15 AM 64.9 °F - 61.7 °F 89% 29.93 in 10.0 mi Calm Calm - N/A   Clear
2:35 AM 63.5 °F - 62.1 °F 95% 29.93 in 10.0 mi Calm Calm - N/A   Clear
2:55 AM 64.2 °F - 61.5 °F 91% 29.93 in 10.0 mi Calm Calm - N/A   Clear
3:15 AM 64.0 °F - 61.2 °F 90% 29.93 in 10.0 mi Calm Calm - N/A   Clear
3:35 AM 62.2 °F - 61.3 °F 97% 29.93 in 10.0 mi Calm Calm - N/A   Clear
3:55 AM 63.0 °F - 61.2 °F 94% 29.93 in 10.0 mi Calm Calm - N/A   Clear
4:15 AM 61.3 °F - 60.1 °F 96% 29.93 in 10.0 mi Calm Calm - N/A   Clear
4:35 AM 61.2 °F - 60.8 °F 99% 29.94 in 10.0 mi Calm Calm - N/A   Clear
4:56 AM 62.6 °F - 60.6 °F 93% 29.94 in 10.0 mi Calm Calm - N/A   Clear
5:15 AM 64.4 °F - 61.0 °F 89% 29.94 in 10.0 mi Calm Calm - N/A   Clear
5:35 AM 64.0 °F - 60.8 °F 89% 29.95 in 10.0 mi SW 3.5 mph - N/A   Clear
5:56 AM 64.2 °F - 60.8 °F 89% 29.96 in 10.0 mi Calm Calm - N/A   Clear
6:15 AM 64.4 °F - 61.0 °F 89% 29.96 in 10.0 mi Calm Calm - N/A   Clear
6:35 AM 60.8 °F - 59.9 °F 97% 29.97 in 10.0 mi Calm Calm - N/A   Clear
6:56 AM 62.2 °F - 60.3 °F 93% 29.98 in 10.0 mi Calm Calm - N/A   Clear
7:15 AM 65.3 °F - 61.2 °F 86% 29.98 in 10.0 mi SW 3.5 mph - N/A   Clear
7:35 AM 66.9 °F - 61.9 °F 84% 29.99 in 10.0 mi SW 4.6 mph - N/A   Clear
7:56 AM 68.5 °F - 62.6 °F 81% 29.99 in 10.0 mi SW 4.6 mph - N/A   Clear
8:15 AM 70.0 °F - 63.3 °F 79% 30.00 in 10.0 mi SW 6.9 mph - N/A   Clear
8:35 AM 71.4 °F - 63.3 °F 76% 29.99 in 10.0 mi SW 9.2 mph - N/A   Clear
8:56 AM 72.9 °F - 63.9 °F 73% 30.00 in 10.0 mi SW 6.9 mph - N/A   Clear
9:15 AM 73.4 °F - 63.7 °F 71% 30.00 in 10.0 mi SW 9.2 mph - N/A   Clear
9:35 AM 74.7 °F - 64.9 °F 72% 30.00 in 10.0 mi WSW 8.1 mph - N/A   Clear
9:56 AM 76.1 °F - 65.3 °F 69% 30.00 in 10.0 mi SW 8.1 mph - N/A   Clear
10:15 AM 77.0 °F - 65.8 °F 68% 30.01 in 10.0 mi SW 8.1 mph - N/A   Clear
10:35 AM 78.1 °F - 66.7 °F 68% 30.00 in 10.0 mi SW 8.1 mph - N/A   Clear
10:56 AM 79.3 °F - 67.5 °F 67% 30.00 in 10.0 mi SW 6.9 mph - N/A   Clear
11:15 AM 79.9 °F - 67.1 °F 65% 30.00 in 10.0 mi SW 8.1 mph - N/A   Clear
11:35 AM 80.8 °F 83.2 °F 66.9 °F 63% 29.99 in 10.0 mi SSW 9.2 mph - N/A   Clear
11:55 AM 81.7 °F 84.3 °F 67.6 °F 62% 29.99 in 10.0 mi SW 8.1 mph - N/A   Clear
12:15 PM 82.8 °F 85.8 °F 68.0 °F 61% 29.98 in 10.0 mi West 5.8 mph - N/A   Scattered Clouds
12:35 PM 83.8 °F 86.3 °F 66.6 °F 56% 29.97 in 10.0 mi SW 11.5 mph - N/A   Scattered Clouds
12:55 PM 82.2 °F 83.8 °F 64.6 °F 55% 29.97 in 10.0 mi WSW 9.2 mph 16.1 mph N/A   Mostly Cloudy
1:15 PM 84.2 °F 86.3 °F 65.8 °F 54% 29.96 in 10.0 mi SW 10.4 mph - N/A   Scattered Clouds
1:35 PM 83.5 °F 85.1 °F 64.8 °F 53% 29.96 in 10.0 mi WSW 12.7 mph 16.1 mph N/A   Scattered Clouds
1:55 PM 84.4 °F 86.1 °F 65.1 °F 52% 29.95 in 10.0 mi SSW 8.1 mph - N/A   Scattered Clouds
2:15 PM 85.3 °F 87.1 °F 65.1 °F 51% 29.94 in 10.0 mi SW 9.2 mph - N/A   Scattered Clouds
2:35 PM 85.6 °F 87.1 °F 64.2 °F 49% 29.94 in 10.0 mi South 10.4 mph 18.4 mph N/A   Scattered Clouds
2:55 PM 86.2 °F 88.2 °F 65.3 °F 50% 29.93 in 10.0 mi SW 8.1 mph - N/A   Scattered Clouds
3:15 PM 85.5 °F 86.8 °F 64.6 °F 49% 29.93 in 10.0 mi SW 12.7 mph 18.4 mph N/A   Scattered Clouds
3:35 PM 85.6 °F 87.6 °F 65.8 °F 51% 29.93 in 10.0 mi SSW 5.8 mph - N/A   Mostly Cloudy
3:55 PM 85.6 °F 86.8 °F 63.9 °F 48% 29.92 in 10.0 mi SSW 9.2 mph - N/A   Scattered Clouds
4:15 PM 86.9 °F 88.3 °F 64.6 °F 47% 29.91 in 10.0 mi SSW 9.2 mph - N/A   Scattered Clouds
4:35 PM 85.5 °F 86.1 °F 62.6 °F 46% 29.91 in 10.0 mi SW 6.9 mph - N/A   Scattered Clouds
4:55 PM 86.7 °F 87.5 °F 63.1 °F 45% 29.91 in 10.0 mi SSW 9.2 mph 18.4 mph N/A   Scattered Clouds
5:15 PM 86.2 °F 87.3 °F 63.9 °F 47% 29.91 in 10.0 mi SSW 11.5 mph 16.1 mph N/A   Scattered Clouds
5:35 PM 86.0 °F 87.3 °F 64.0 °F 48% 29.91 in 10.0 mi SSW 8.1 mph 17.3 mph N/A   Scattered Clouds
5:55 PM 86.2 °F 87.1 °F 63.1 °F 46% 29.91 in 10.0 mi SSW 6.9 mph 20.7 mph N/A   Scattered Clouds
6:15 PM 85.6 °F 86.3 °F 63.0 °F 46% 29.91 in 10.0 mi SSW 9.2 mph - N/A   Scattered Clouds
6:35 PM 85.5 °F 86.3 °F 63.3 °F 47% 29.91 in 10.0 mi SW 9.2 mph - N/A   Scattered Clouds
6:55 PM 84.7 °F 85.6 °F 63.3 °F 48% 29.91 in 10.0 mi SW 9.2 mph - N/A   Scattered Clouds
7:15 PM 84.4 °F 85.4 °F 63.5 °F 49% 29.91 in 10.0 mi SW 4.6 mph - N/A   Scattered Clouds
7:35 PM 83.5 °F 84.5 °F 63.3 °F 50% 29.91 in 10.0 mi SSW 6.9 mph - N/A   Clear
7:55 PM 82.4 °F 83.5 °F 63.3 °F 52% 29.90 in 10.0 mi SSW 3.5 mph - N/A   Clear
8:15 PM 81.5 °F 82.8 °F 63.5 °F 54% 29.90 in 10.0 mi SSW 3.5 mph - N/A   Scattered Clouds
8:35 PM 80.6 °F 82.0 °F 63.7 °F 56% 29.90 in 10.0 mi Calm Calm - N/A   Clear
8:55 PM 79.2 °F - 63.7 °F 59% 29.89 in 10.0 mi South 3.5 mph - N/A   Clear
9:15 PM 78.4 °F - 63.9 °F 61% 29.89 in 10.0 mi South 3.5 mph - N/A   Clear
9:35 PM 76.8 °F - 63.9 °F 64% 29.89 in 10.0 mi South 3.5 mph - N/A   Clear
9:55 PM 76.3 °F - 63.9 °F 65% 29.90 in 10.0 mi Calm Calm - N/A   Clear
10:15 PM 75.6 °F - 64.0 °F 67% 29.90 in 10.0 mi South 3.5 mph - N/A   Clear
10:35 PM 74.7 °F - 64.2 °F 70% 29.91 in 10.0 mi South 3.5 mph - N/A   Clear
10:55 PM 75.2 °F - 64.2 °F 69% 29.91 in 10.0 mi South 4.6 mph - N/A   Clear
11:15 PM 75.0 °F - 64.4 °F 69% 29.91 in 10.0 mi South 6.9 mph - N/A   Clear
11:35 PM 75.6 °F - 64.0 °F 67% 29.92 in 10.0 mi South 5.8 mph - N/A   Clear
11:55 PM 75.4 °F - 63.1 °F 66% 29.92 in 10.0 mi SSW 5.8 mph - N/A   Clear